Domov               UVHVVR             MKGP            O straneh              
ZDRAVSTVENO VARSTVO RASTLIN
  MREŽA AGROMET. POSTAJ
 ► PROGNOSTIČNA OBVESTILA
AGROMETEOROLOŠKI PODATKI -
ARSO
OBVLADOVANJE TVEGANJ ZARADI
NEUGODNIH VREMENSKIH RAZMER
  ► NARAVNE NESREČE
  ► SUŠA/MOČA
  ► NAMAKANJE
  ► ŽLED (gozdarstvo)
KARTOGRAFSKI PRIKAZI
SPLETNE POVEZAVE
PROJEKTI IN PUBLIKACIJE

AGROMETEOROLOŠKA MREŽA: VREMENSKE POSTAJE IN FENOLOŠKA OPAZOVANJA

Pregled podatkov za lokacijo Višnjevik, meteorološka postaja 857246

Pregled senzorjev na lokaciji

ID Ime Zadnja
vrednost
Datum
zadnje
spremembe
Tip
senzorja
3902 Temperatura 2 m ( °C) 14,79 °C 23.10.2017 11:00 50YA
3903 Relativna vlaga 2 m (% RH) 61,45 % RH 23.10.2017 10:59 50YA
3904 Omočenost lista (U) 0 U 23.10.2017 10:59 A730WET
3906 Padavine 0.2 mm (mm) 0 mm 23.10.2017 11:00 Rain-O-Matic

Pregled podatkov zadnjih 24 ur

Zap.
št.
Datum in čas Višnjevik
Omočenost
lista
Padavine
0.2
mm
Relativna
vlaga
2
m
Temperatura
2
m
0 23.10.2017 10:00 0 0 63,16 14,46
1 23.10.2017 09:30 0 0 66,8 13,37
2 23.10.2017 09:00 0 0 68,25 13,11
3 23.10.2017 08:30 0 0 73,19 12,28
4 23.10.2017 08:00 0 0 78,82 10,42
5 23.10.2017 07:30 0 0 86,59 7,58
6 23.10.2017 07:00 0 0 89,51 6,68
7 23.10.2017 06:30 0 0 90,44 6,56
8 23.10.2017 06:00 0 0 87,52 7,16
9 23.10.2017 05:30 0 0 80,71 8,07
10 23.10.2017 05:00 0 0 79,21 8,43
11 23.10.2017 04:30 0 0 79,09 8,51
12 23.10.2017 04:00 0 0 77,61 8,66
13 23.10.2017 03:30 0 0 80,6 8,54
14 23.10.2017 03:00 0 0 74,02 9,17
15 23.10.2017 02:30 0 0 76,35 9
16 23.10.2017 02:00 0 0 80,58 8,75
17 23.10.2017 01:30 0 0 71,2 9,65
18 23.10.2017 01:00 0 0 73,55 9,44
19 23.10.2017 00:30 0 0 69,12 10
20 23.10.2017 00:00 0 0 66,39 10,39
21 22.10.2017 23:30 0 0 58,48 11,36
22 22.10.2017 23:00 0 0 62,98 10,84
23 22.10.2017 22:30 0 0 63,08 10,91
24 22.10.2017 22:00 0 0 62,94 10,95
25 22.10.2017 21:30 0 0 66,63 10,59
26 22.10.2017 21:00 0 0 71,26 10,17
27 22.10.2017 20:30 1 0 75,05 9,93
28 22.10.2017 20:00 0 81,84 9,41
29 22.10.2017 19:30 1 0 80,93 9,71
30 22.10.2017 19:00 0 0 79,07 10,24
31 22.10.2017 18:30 1 0,2 85,24 9,89
32 22.10.2017 18:00 1 1 86,4 10,16
33 22.10.2017 17:30 1 1,6 87,65 10,21
34 22.10.2017 17:00 1 0,2 85,63 10,58
35 22.10.2017 16:30 1 1 85,43 11
36 22.10.2017 16:00 1 1 81,07 11,7
37 22.10.2017 15:30 1 0,6 90,2 11,54
38 22.10.2017 15:00 1 3 88,53 12,66
39 22.10.2017 14:30 0 0 94,83 12,63
40 22.10.2017 14:00 1 0,8 96,73 12,69
41 22.10.2017 13:30 0 0 92,37 13,28
42 22.10.2017 13:00 0 0 93,4 13,44
43 22.10.2017 12:30 0 0 98,07 13,69
44 22.10.2017 12:00 0 0 99,7 12,96
© 2011 Ministrstvo za kmetijstvo, gozdarstvo in prehrano. Vse pravice pridržane.